Regional Weather Roundup
Issued by NWS Charleston, SC

Current Version | Previous Version | Graphics & Text | Print | Product List | Glossary On
Versions: 1 2 3 4 5 6 7 8 9 10 11 12 13 14 15 16 17 18 19 20 21 22 23 24 25 26 27 28 29 30 31 32 33 34 35 36 37 38 39 40 41 42 43 44 45 46 47 48 49 50
000
ASUS42 KCHS 182326
RWRCHS

REGIONAL WEATHER ROUNDUP
NATIONAL WEATHER SERVICE CHARLESTON SC
700 PM EDT SAT APR 18 2015

NOTE: "FAIR" INDICATES FEW OR NO CLOUDS BELOW 12,000 FEET WITH NO
SIGNIFICANT WEATHER AND/OR OBSTRUCTIONS TO VISIBILITY.

NOT ALL STATIONS ARE QUALITY CONTROLLED BY THE NATIONAL
WEATHER SERVICE. USE DATA WITH CAUTION...ESPECIALLY
DEWPOINT OBSERVATIONS.

SCZ027-030-031-034>040-042>050-190000-
...SOUTHEAST SOUTH CAROLINA...

CITY           SKY/WX    TMP DP  RH WIND       PRES   REMARKS
N CHARLESTON   LGT RAIN  72  67  84 SE10      29.94S
WATERFRONT PRK   N/A     70 N/A N/A E9          N/A
MOUNT PLEASANT FAIR      68  66  94 E5        29.94F
PINOPOLIS      NOT AVBL
MONCKS CORNER  CLOUDY    73  68  83 CALM      29.93S
SUMMERVILLE    CLOUDY    70  70 100 CALM      29.94S
BEAUFORT MCAS  CLOUDY    74  68  81 SE7       29.92S
BEAUFORT ARPT  FAIR      72  68  88 CALM      29.92F
HILTON HEAD IS CLOUDY    72  70  94 SE5       29.94S
WALTERBORO     CLOUDY    70  66  88 SE7       29.93S
ALLENDALE      CLOUDY    73  70  88 VRB3      29.92R

...SOUTHERN MIDLANDS AND PEE DEE...

CITY           SKY/WX    TMP DP  RH WIND       PRES   REMARKS
GEORGETOWN     NOT AVBL
KINGSTREE      NOT AVBL
ORANGEBURG     CLOUDY    74  66  76 CALM      29.93S
BARNWELL       FAIR      72  70  94 NE3       29.93S
AIKEN          CLOUDY    68  64  88 CALM      29.97S
MANNING        HVY RAIN  70  52  52 SE3       29.93S
COLUMBIA       PTSUNNY   73  66  78 SE3       29.92F
SUMTER         LGT RAIN  72  68  88 E5        29.92S
FLORENCE       CLOUDY    75  66  73 SE7       29.93S
MYRTLE BEACH   MOCLDY    70  63  78 SE8       29.97R
N MYRTLE BEACH MOCLDY    69  64  84 SE7       29.95S

$$

GAZ063-065-086>088-099>101-113>116-118-119-134>141-150-190000-
...SOUTHEAST GEORGIA...

CITY           SKY/WX    TMP DP  RH WIND       PRES   REMARKS
SAVANNAH ARPT  PTSUNNY   75  67  76 E9        29.91S
HUNTER AAF     MOSUNNY   73  69  87 E9        29.90R
FORT STEWART   PTSUNNY   78  70  76 SE8       29.88F
STATESBORO       N/A     76  69  78 NE5       29.90S
SYLVANIA       CLOUDY    76  71  84 CALM      29.92S
CLAXTON        FAIR      75  72  88 CALM      29.90F

...CSRA...CENTRAL AND FAR SOUTHEAST GEORGIA...

CITY           SKY/WX    TMP DP  RH WIND       PRES   REMARKS
THOMSON        PTSUNNY   72  71  96 CALM      29.97S
AUGUSTA-BUSH   PTSUNNY   72  66  81 NE5       29.92S
AUGUSTA-DANIEL PTSUNNY   73  66  78 NE5       29.93F
SWAINSBORO     NOT AVBL
VIDALIA        RAIN      77  72  83 CALM      29.91S
EASTMAN        FAIR      78  70  76 CALM      29.94R
HAZLEHURST     FAIR      80  69  68 CALM      29.89F
ALMA           PTSUNNY   80  66  62 NW3       29.90F
WAYCROSS       CLOUDY    84  72  66 CALM      29.90S
JESUP          FAIR      82  70  65 CALM      29.90S
BAXLEY         FAIR      81  70  69 CALM      29.90S
BRUNSWICK      MOSUNNY   73  70  88 SE5       29.93R
SAINT SIMONS   MOSUNNY   72  69  90 E8        29.91F

$$

SCZ027-028-034-036>038-045-046-048>050-GAZ119-141-190000-
...LAKE AND SUPPLEMENTAL COASTAL OBSERVATIONS...

STATION/POSITION TIME  TEMP    WIND        PRES    WAVE   SWELL
                       AIR SEA DIR/SP/G            HT/PER HT/PER/DIR
                 (UTC) (F)     (DEG/KT/KT) (MB)    (FT/S) (FT/S/D)
UPR LAKE MARION  NOT AVBL
WINYAH BAY       2245   68      80/  5     1013.0S
LAKE MURRAY      2200   70     210/  1/  3 1013.2F
ACE BASIN NERRS  NOT AVBL
FORT PULASKI     2300   71 71  100/  7/  8 1013.7F
SAPELO ISLAND    2200   75     100/  8     1013.0S

$$

ANZ835-935-AMZ111-154-330-350-352-354-370-450-454-472-190000-
...C-MAN AND BUOY OBSERVATIONS...

STATION/POSITION TIME  TEMP    WIND        PRES    WAVE   SWELL
                       AIR SEA DIR/SP/G            HT/PER HT/PER/DIR
                 (UTC) (F)     (DEG/KT/KT) (MB)    (FT/S) (FT/S/D)
BUOY 41004       2250   72 75   70/  6/  8 1013.1S   3/ 9   3/ 9
BUOY 41008       2250   70 69  100/  6/  8 1013.0F   2/ 8   2/100/ 8
FOLLY BEACH CMAN 2300   68      90/  5/  6 1013.9F
CAPERS NEARSHORE NOT AVBL
FRIPP NEARSHORE  2200   71     110/ 10/ 10 1013.2F


STATION/POSITION TIME  TEMP    WIND        PRES    WAVE   SWELL
                       AIR SEA DIR/SP/G            HT/PER HT/PER/DIR
                 (UTC) (F)     (DEG/KT/KT) (MB)    (FT/S) (FT/S/D)
5E ST. MARYS GA  2221      72                N/A     3/ 8
FRYING PAN BUOY  2250   73 74  110/ 12/ 14 1013.9S   4/ 8   3/ 90/ 8
BUOY 41025       2250   72 77   20/  8/ 10 1014.2S   4/ 7   3/110/ 7
CAPE LOOKOUT NC  2300   69      CALM  /  1 1013.7S
BUOY 41002       2250   72 75  170/  4/  6 1013.9S   5/11   5/ 40/11
BUOY 41010       2220   78 80   60/  2/  4 1014.0S
ST AUGUSTINE FL  2300   71 72  150/  9/ 11 1013.9R


$$


USA.gov is the U.S. government's official web portal to all federal, state and local government web resources and services.